EN

Hourly Weather Barwinek

Today, 23 July, Friday

Time Temperature Precipitation Wind Pressure Humidity
00:00 +13°C° 0 mm 1 mps 725 mmHg 92%
01:00 +13°C° 0 mm 1 mps 724 mmHg 92%
02:00 +13°C° 0 mm 1 mps 724 mmHg 92%
03:00 +13°C° 0 mm 1 mps 724 mmHg 92%
04:00 +13°C° 0 mm 1 mps 724 mmHg 92%
05:00 +15°C° 0 mm 1 mps 724 mmHg 85%
06:00 +18°C° 0 mm 1 mps 724 mmHg 79%
07:00 +19°C° 0 mm 1 mps 724 mmHg 72%
08:00 +20°C° 0.1 mm 1 mps 724 mmHg 67%
09:00 +22°C° 0.1 mm 1 mps 724 mmHg 63%
10:00 +23°C° 0.1 mm 1 mps 724 mmHg 58%
11:00 +23°C° 0.1 mm 1 mps 724 mmHg 57%
12:00 +24°C° 0.1 mm 1 mps 724 mmHg 56%
13:00 +24°C° 0 mm 1 mps 724 mmHg 56%
14:00 +24°C° 0.1 mm 1 mps 724 mmHg 57%
15:00 +23°C° 0.1 mm 1 mps 723 mmHg 59%
16:00 +23°C° 0.1 mm 1 mps 723 mmHg 60%
17:00 +22°C° 0.1 mm 1 mps 723 mmHg 67%
18:00 +20°C° 0.1 mm 1 mps 723 mmHg 73%
19:00 +19°C° 0.1 mm 1 mps 723 mmHg 80%
20:00 +18°C° 0 mm 1 mps 723 mmHg 81%
21:00 +18°C° 0 mm 1 mps 723 mmHg 82%
22:00 +16°C° 0 mm 1 mps 723 mmHg 84%
23:00 +15°C° 0 mm 0 mps 723 mmHg 83%

Tomorrow, 24 July, Saturday

Time Temperature Precipitation Wind Pressure Humidity
00:00 +15°C° 0 mm 0 mps 723 mmHg 82%
01:00 +15°C° 0 mm 0 mps 723 mmHg 82%
02:00 +15°C° 0 mm 0 mps 723 mmHg 82%
03:00 +15°C° 0 mm 0 mps 723 mmHg 82%
04:00 +15°C° 0 mm 0 mps 723 mmHg 82%
05:00 +16°C° 0 mm 0 mps 723 mmHg 81%
06:00 +17°C° 0 mm 0 mps 723 mmHg 79%
07:00 +17°C° 0 mm 0 mps 723 mmHg 78%
08:00 +21°C° 0 mm 1 mps 723 mmHg 70%
09:00 +23°C° 0 mm 1 mps 723 mmHg 63%
10:00 +24°C° 0 mm 1 mps 724 mmHg 55%
11:00 +25°C° 0 mm 1 mps 723 mmHg 51%
12:00 +26°C° 0 mm 2 mps 723 mmHg 47%
13:00 +27°C° 0 mm 2 mps 723 mmHg 43%
14:00 +27°C° 0 mm 2 mps 723 mmHg 46%
15:00 +26°C° 0 mm 2 mps 723 mmHg 48%
16:00 +26°C° 0 mm 2 mps 723 mmHg 51%
17:00 +24°C° 0 mm 2 mps 723 mmHg 57%
18:00 +23°C° 0 mm 2 mps 722 mmHg 62%
19:00 +21°C° 0 mm 1 mps 722 mmHg 68%
20:00 +20°C° 0 mm 1 mps 722 mmHg 68%
21:00 +20°C° 0 mm 1 mps 722 mmHg 69%
22:00 +19°C° 0 mm 1 mps 722 mmHg 70%
23:00 +19°C° 0 mm 1 mps 722 mmHg 69%

Day after tomorrow, 25 July, Sunday

Time Temperature Precipitation Wind Pressure Humidity
00:00 +19°C° 0 mm 1 mps 723 mmHg 68%
01:00 +18°C° 0 mm 2 mps 723 mmHg 66%
02:00 +17°C° 0 mm 2 mps 723 mmHg 68%
03:00 +17°C° 0 mm 2 mps 723 mmHg 70%
04:00 +16°C° 0 mm 1 mps 722 mmHg 72%
05:00 +18°C° 0 mm 2 mps 723 mmHg 69%
06:00 +19°C° 0 mm 2 mps 723 mmHg 66%
07:00 +21°C° 0 mm 2 mps 723 mmHg 62%
08:00 +24°C° 0 mm 3 mps 723 mmHg 55%
09:00 +26°C° 0 mm 3 mps 723 mmHg 49%
10:00 +27°C° 0 mm 4 mps 723 mmHg 42%
11:00 +28°C° 0 mm 4 mps 723 mmHg 39%
12:00 +29°C° 0 mm 4 mps 723 mmHg 37%
13:00 +30°C° 0 mm 4 mps 723 mmHg 34%
14:00 +30°C° 0 mm 4 mps 723 mmHg 35%
15:00 +30°C° 0 mm 3 mps 723 mmHg 36%
16:00 +29°C° 0 mm 3 mps 723 mmHg 38%
17:00 +28°C° 0 mm 2 mps 722 mmHg 45%
18:00 +26°C° 0 mm 2 mps 722 mmHg 52%
19:00 +24°C° 0 mm 2 mps 722 mmHg 59%
20:00 +23°C° 0 mm 2 mps 722 mmHg 61%
21:00 +21°C° 0 mm 2 mps 722 mmHg 63%
22:00 +20°C° 0 mm 2 mps 722 mmHg 65%
23:00 +19°C° 0 mm 2 mps 722 mmHg 66%

26 July, Monday

Time Temperature Precipitation Wind Pressure Humidity
00:00 +19°C° 0 mm 2 mps 722 mmHg 67%
01:00 +18°C° 0 mm 2 mps 722 mmHg 69%
02:00 +18°C° 0 mm 2 mps 722 mmHg 68%
03:00 +19°C° 0 mm 3 mps 721 mmHg 67%
04:00 +19°C° 0 mm 3 mps 721 mmHg 67%
05:00 +19°C° 0 mm 3 mps 722 mmHg 66%
06:00 +20°C° 0 mm 4 mps 722 mmHg 64%
07:00 +21°C° 0 mm 4 mps 722 mmHg 63%
08:00 +23°C° 0 mm 5 mps 722 mmHg 57%
09:00 +26°C° 0 mm 6 mps 722 mmHg 50%
10:00 +28°C° 0 mm 7 mps 722 mmHg 43%
11:00 +29°C° 0 mm 7 mps 722 mmHg 41%
12:00 +30°C° 0 mm 7 mps 722 mmHg 39%
13:00 +32°C° 0 mm 7 mps 722 mmHg 37%
14:00 +32°C° 0 mm 6 mps 722 mmHg 39%
15:00 +32°C° 0 mm 5 mps 722 mmHg 40%
16:00 +32°C° 0 mm 5 mps 722 mmHg 42%
17:00 +29°C° 0 mm 4 mps 722 mmHg 50%
18:00 +27°C° 0 mm 2 mps 721 mmHg 58%
19:00 +24°C° 0 mm 1 mps 721 mmHg 67%
20:00 +23°C° 0.4 mm 1 mps 721 mmHg 73%
21:00 +22°C° 0.4 mm 1 mps 721 mmHg 80%
22:00 +20°C° 0.4 mm 1 mps 722 mmHg 86%
23:00 +19°C° 0.4 mm 2 mps 722 mmHg 87%

27 July, Tuesday

Time Temperature Precipitation Wind Pressure Humidity
00:00 +19°C° 0.4 mm 2 mps 722 mmHg 89%
01:00 +19°C° 0.4 mm 2 mps 722 mmHg 90%
02:00 +19°C° 0.2 mm 2 mps 722 mmHg 90%
03:00 +18°C° 0.2 mm 3 mps 722 mmHg 90%
04:00 +18°C° 0.2 mm 3 mps 721 mmHg 90%
05:00 +19°C° 0 mm 3 mps 722 mmHg 87%
06:00 +20°C° 0 mm 3 mps 722 mmHg 84%
07:00 +21°C° 0 mm 4 mps 722 mmHg 81%
08:00 +23°C° 0 mm 4 mps 722 mmHg 71%
09:00 +27°C° 0 mm 5 mps 722 mmHg 61%
10:00 +29°C° 0 mm 6 mps 723 mmHg 50%
11:00 +30°C° 0 mm 6 mps 723 mmHg 47%
12:00 +32°C° 0 mm 6 mps 722 mmHg 44%
13:00 +33°C° 0 mm 6 mps 722 mmHg 41%
14:00 +33°C° 0 mm 5 mps 722 mmHg 40%
15:00 +34°C° 0 mm 5 mps 722 mmHg 39%
16:00 +34°C° 0 mm 4 mps 722 mmHg 38%
17:00 +31°C° 0 mm 3 mps 721 mmHg 46%
18:00 +28°C° 0 mm 3 mps 721 mmHg 54%
19:00 +26°C° 0 mm 2 mps 720 mmHg 61%
20:00 +25°C° 0 mm 2 mps 720 mmHg 62%
21:00 +25°C° 0 mm 2 mps 720 mmHg 62%
22:00 +24°C° 0 mm 2 mps 721 mmHg 63%
23:00 +23°C° 0 mm 2 mps 720 mmHg 66%

28 July, Wednesday

Time Temperature Precipitation Wind Pressure Humidity
00:00 +23°C° 0 mm 2 mps 720 mmHg 68%
01:00 +21°C° 0 mm 2 mps 720 mmHg 71%
02:00 +20°C° 0 mm 2 mps 720 mmHg 74%
03:00 +20°C° 0 mm 2 mps 720 mmHg 77%
04:00 +19°C° 0 mm 2 mps 720 mmHg 79%
05:00 +20°C° 0 mm 3 mps 720 mmHg 75%
06:00 +21°C° 0 mm 3 mps 721 mmHg 72%
07:00 +23°C° 0 mm 4 mps 721 mmHg 68%
08:00 +25°C° 0 mm 3 mps 721 mmHg 64%
09:00 +26°C° 0 mm 3 mps 722 mmHg 60%
10:00 +27°C° 0 mm 3 mps 722 mmHg 56%
11:00 +27°C° 0.1 mm 3 mps 722 mmHg 59%
12:00 +27°C° 0.1 mm 3 mps 722 mmHg 62%
13:00 +26°C° 0.1 mm 3 mps 722 mmHg 65%
14:00 +25°C° 0.4 mm 3 mps 722 mmHg 70%
15:00 +24°C° 0.4 mm 3 mps 722 mmHg 75%
16:00 +23°C° 0.4 mm 2 mps 723 mmHg 80%
17:00 +21°C° 0.2 mm 2 mps 723 mmHg 83%
18:00 +21°C° 0.2 mm 1 mps 723 mmHg 87%
19:00 +20°C° 0.2 mm 1 mps 723 mmHg 90%
20:00 +20°C° 0 mm 1 mps 723 mmHg 91%
21:00 +19°C° 0 mm 1 mps 723 mmHg 91%
22:00 +18°C° 0 mm 1 mps 723 mmHg 92%
23:00 +18°C° 0 mm 1 mps 723 mmHg 92%
Show more

We Need Your Consent

Meteoprog and our Service Providers may store and access personal data such as cookies, device identifiers or other similar technologies on your device and process such data to personalise content and ads, as well as provide social media features and to analyse the traffic.

  • Store and/or access information on your device

    Cookies, device identifiers or other information can be stored or accessed on your device for the purposes indicated above.

  • Personalised ads and content, ad and content measurement, audience insights, and products development

    Ads and content can be personalised based on a profile. More data can be added to better personalise ads and content. Ad and content performance can be measured. Insights about the audience who saw the ads and content can be derived. Such data can be used to develop or improve user’s experience, systems and software.

By clicking ‘I Agree’ you will allow the use of indicated cookies, device identifiers, web beacons or other similar technologies. Your settings can be changed in the browser on your device.

For certain purposes, legitimate interests may be relied on, rather than consent. You can read more about this in our Privacy and Cookie Policy.